Date,TemperatureHighF,TemperatureAvgF,TemperatureLowF,DewpointHighF,DewpointAvgF,DewpointLowF,HumidityHigh,HumidityAvg,HumidityLow,PressureMaxIn,PressureMinIn,WindSpeedMaxMPH,WindSpeedAvgMPH,GustSpeedMaxMPH,PrecipitationSumIn
2013-1-1,25.2,11.7,3.2,14.9,5.6,-1.0,89,77,50,30.82,30.39,4,0,7,0.00
2013-1-2,26.6,13.1,2.1,14.2,3.9,-1.2,85,68,43,30.84,30.39,101,2,101,2.76
2013-1-3,21.6,18.6,8.4,4.4,3.2,0.7,70,51,43,30.86,30.65,2,1,5,0.01
2013-1-4,28.6,20.0,5.0,4.0,0.4,-4.0,67,44,31,30.79,30.35,3,1,6,0.01
2013-1-5,33.6,14.0,4.1,4.3,-1.0,-6.6,71,52,26,30.89,30.41,4,1,5,0.00
2013-1-6,27.5,16.9,6.1,6.9,3.3,-1.1,76,56,41,30.85,30.37,2,0,4,0.00
2013-1-7,41.5,21.5,8.2,7.8,3.5,0.1,74,48,21,30.58,30.02,4,1,7,0.00
2013-1-8,39.0,24.9,15.4,16.4,9.6,1.3,81,54,27,30.70,30.17,4,1,9,0.00
2013-1-9,43.2,25.3,15.1,23.6,13.7,9.5,87,64,31,30.75,30.27,12,4,5,0.00
2013-1-10,41.7,32.6,23.0,26.3,14.2,7.5,78,47,24,30.33,29.56,16,4,30,2.75
2013-1-11,33.1,22.6,17.1,24.3,16.2,7.9,92,77,56,29.79,29.55,12,5,28,0.00
2013-1-13,-0.9,-3.1,-5.1,-5.0,-6.7,-8.7,83,81,79,30.68,30.59,2,1,4,0.00
2013-1-14,14.9,0.1,-9.2,-3.0,-9.2,-13.2,83,63,29,30.94,30.37,4,1,7,0.00
2013-1-15,21.2,3.3,-10.3,0.7,-6.0,-14.4,78,64,39,31.03,30.55,5,1,10,0.00
2013-1-16,36.7,16.4,0.5,9.7,3.9,-3.3,87,61,31,31.05,30.44,99,1,7,0.03
2013-1-17,36.3,22.0,11.1,12.6,8.2,3.4,76,57,35,30.94,30.50,4,1,5,0.00
2013-1-18,41.5,22.7,12.2,17.6,10.8,5.7,83,62,31,30.85,30.33,3,1,6,0.00
2013-1-19,40.6,22.6,9.3,15.7,9.1,1.5,82,58,33,30.91,30.39,4,1,6,0.00
2013-1-20,41.2,24.1,12.2,9.5,4.3,-0.2,60,44,22,30.82,30.28,4,1,6,0.00
2013-1-21,37.6,25.1,19.6,7.0,4.2,2.1,48,41,27,30.67,30.36,0,0,2,0.00
2013-1-22,43.7,25.2,17.4,9.6,3.6,-3.3,51,40,17,30.75,30.30,4,1,6,0.03
2013-1-23,44.4,29.2,16.9,10.4,3.5,-3.7,49,34,16,30.78,30.32,4,1,5,0.00
2013-1-24,42.1,32.2,25.0,23.0,14.3,6.3,77,49,29,30.58,30.32,2,0,4,0.00
2013-1-25,33.6,31.1,28.8,31.6,29.0,22.8,96,92,77,30.53,30.34,1,0,2,0.03
2013-1-26,41.0,36.0,32.2,37.4,33.6,31.4,98,91,80,30.16,29.90,4,1,8,0.05
2013-1-27,39.4,33.6,31.1,32.4,30.8,26.1,99,90,59,30.05,29.75,10,1,17,0.09
2013-1-28,36.1,28.1,19.2,29.4,23.7,16.5,94,84,65,30.10,29.77,8,3,15,0.01
2013-1-29,27.0,16.9,8.1,16.5,10.4,4.5,89,76,52,30.45,29.97,5,2,11,2.99
2013-1-30,31.5,18.4,9.7,15.9,11.3,4.8,92,74,48,30.56,30.23,5,1,8,0.01
2013-1-31,42.4,26.0,14.4,25.7,17.4,11.7,94,72,41,30.66,30.23,5,1,10,0.10
2013-2-1,42.6,27.3,17.6,25.8,18.2,14.1,91,71,43,30.68,30.21,4,2,7,0.00
2013-2-2,43.5,28.3,17.8,23.1,17.6,11.6,81,65,42,30.80,30.36,4,1,6,0.00
2013-2-3,41.0,26.9,19.9,21.5,16.4,10.2,92,66,41,30.66,30.14,4,1,8,0.00
2013-2-4,42.3,26.7,17.2,26.0,19.9,14.2,93,77,51,30.50,30.09,4,1,8,0.00
2013-2-5,47.8,29.4,16.5,21.9,16.1,11.7,87,61,26,30.52,29.93,4,1,6,0.00
2013-2-6,46.0,32.7,24.3,25.5,21.0,16.7,83,64,38,30.35,29.87,6,2,13,0.00
2013-2-7,45.0,29.0,17.2,26.4,18.8,12.6,93,69,33,30.54,30.04,5,2,11,0.00
2013-2-8,31.1,28.2,21.9,15.9,13.0,11.2,74,53,45,30.32,30.03,4,1,8,0.00
2013-2-10,20.3,18.8,17.1,17.7,16.0,13.8,92,89,84,30.18,30.11,2,0,4,0.00
2013-2-11,29.5,19.3,8.2,22.7,15.4,4.9,93,85,70,30.56,30.11,5,1,9,0.02
2013-2-12,31.5,16.1,5.0,14.0,7.8,1.2,89,72,40,30.70,30.27,4,1,8,0.05
2013-2-13,39.4,22.3,7.3,18.5,13.1,4.0,88,70,39,30.72,30.18,4,1,8,0.04
2013-2-14,41.4,28.3,17.2,21.8,15.4,10.3,87,60,35,30.59,30.20,6,1,10,3.26
2013-2-15,41.2,26.9,18.9,14.1,10.9,8.2,72,54,26,30.77,30.36,6,2,12,0.00
2013-2-16,44.2,30.6,17.4,17.3,11.2,-7.7,98,48,22,30.78,30.23,49,1,49,3.26
2013-2-17,47.8,45.1,42.4,16.5,11.4,2.7,34,25,17,29.83,29.64,8,3,15,0.00
2013-2-18,21.4,16.3,12.4,8.4,5.8,3.5,67,63,57,30.49,30.35,2,0,3,0.00
2013-2-20,30.6,28.4,27.1,22.3,21.0,19.3,81,74,63,29.79,29.69,5,2,10,0.00
2013-2-21,27.7,26.7,25.5,21.4,20.3,18.7,84,76,70,29.87,29.78,4,2,9,0.00
2013-2-24,21.4,20.3,18.0,15.0,13.7,11.4,76,75,74,30.37,30.27,4,2,6,0.00
2013-2-26,13.5,11.9,11.1,7.2,6.5,5.7,81,79,74,30.61,30.56,1,0,2,0.03
2013-2-27,36.9,24.8,8.1,16.7,7.8,-3.4,90,51,18,30.78,30.31,6,1,9,0.01
2013-2-28,23.9,16.1,9.9,11.4,7.2,1.6,79,68,55,30.84,30.63,2,1,4,0.00
2013-3-1,27.1,24.7,21.9,14.2,12.3,9.9,64,59,54,30.74,30.60,2,0,4,0.00
2013-3-2,53.6,41.4,25.0,26.4,22.3,18.6,83,49,26,30.73,30.16,4,2,7,0.00
2013-3-3,53.6,40.7,31.5,32.5,23.6,17.9,85,53,25,30.32,29.72,8,2,17,0.01
2013-3-4,49.1,33.8,17.2,33.7,21.5,4.4,92,64,25,30.60,29.77,11,3,19,0.02
2013-3-5,46.0,29.5,10.6,15.2,8.1,0.3,85,43,19,30.72,30.11,62,2,84,3.50
2013-3-6,57.9,43.7,29.5,15.9,10.8,1.3,45,28,10,30.29,29.70,13,3,21,0.00
2013-3-7,43.7,39.1,33.8,18.5,15.1,11.2,53,38,28,30.04,29.88,7,2,13,0.00
2013-3-8,46.4,37.1,29.1,31.9,26.3,14.1,96,69,33,29.95,29.74,9,2,14,3.51
2013-3-9,36.3,29.4,20.1,29.5,25.2,14.1,94,84,74,30.43,29.76,7,1,11,0.15
2013-3-10,43.9,29.1,16.9,18.3,15.2,11.1,81,59,27,30.59,30.15,4,1,9,0.04
2013-3-11,38.3,26.1,21.9,22.9,18.3,16.6,81,72,50,30.49,30.24,2,1,4,0.00
2013-3-12,52.7,42.9,34.2,28.8,25.0,21.2,70,50,32,30.42,30.10,6,2,10,0.00
2013-3-13,34.9,32.8,31.5,25.2,24.1,23.3,74,70,65,30.53,30.45,2,2,4,0.00
2013-3-14,64.2,52.0,33.3,26.2,19.8,13.9,60,30,15,30.54,30.02,5,2,9,0.00
2013-3-15,51.4,44.2,41.5,19.4,16.9,13.0,39,33,23,30.26,29.90,3,2,6,0.00
2013-3-16,47.1,42.7,41.3,31.5,30.2,26.3,47,40,38,29.97,29.87,4,2,9,0.00
2013-3-17,51.8,44.3,15.4,21.8,3.6,-28.2,35,19,9,30.18,29.58,32,7,32,3.70
2013-3-18,47.8,37.5,28.0,10.6,5.9,-6.7,47,28,10,30.17,29.87,9,2,21,3.70
2013-3-19,50.2,37.9,29.5,12.4,4.8,-8.3,45,28,9,30.41,30.03,8,2,12,3.70
2013-3-20,53.4,40.4,27.9,21.8,11.4,-1.0,48,31,15,30.41,29.82,7,2,13,0.00
2013-3-21,44.2,36.4,28.6,32.3,20.7,-3.4,95,59,18,30.08,29.75,8,2,15,0.06
2013-3-22,41.3,23.5,14.7,31.5,-7.1,-25.7,47,26,12,30.12,29.72,11,5,62,3.76
2013-3-23,29.1,20.7,14.5,14.6,0.9,-7.2,68,42,20,30.50,30.10,11,3,19,0.00
2013-3-24,34.7,21.7,11.1,8.3,0.5,-10.6,66,43,13,30.53,30.11,10,2,16,0.00
2013-3-25,41.4,24.6,7.2,7.5,-1.0,-13.0,70,38,9,30.68,30.11,7,2,11,0.00
2013-3-26,57.2,39.5,24.8,17.3,7.4,-2.3,59,31,9,30.37,29.72,6,2,15,0.00
2013-3-27,67.1,43.3,29.3,21.5,9.4,-6.0,61,29,6,30.22,29.70,99,2,99,3.76
2013-3-28,62.6,50.8,40.3,16.2,5.9,-9.4,32,17,5,30.13,29.77,7,2,11,0.00
2013-3-29,49.1,42.9,37.4,22.4,18.1,11.9,53,38,24,30.25,30.04,4,1,6,0.00
2013-4-1,60.8,49.6,37.2,32.6,21.9,-3.7,63,40,8,30.03,29.64,11,3,17,0.06
2013-4-2,50.5,39.2,31.8,37.3,29.6,23.3,93,69,42,30.20,29.82,9,2,14,0.07
2013-4-3,59.4,45.1,31.5,34.4,24.6,14.3,88,51,18,30.29,29.90,7,2,13,0.00
2013-4-4,65.1,50.2,35.4,25.6,17.6,9.3,58,30,11,30.32,29.79,7,2,11,0.00
2013-4-5,67.3,52.5,40.5,31.9,16.8,1.6,63,29,8,30.05,29.55,12,3,20,0.00
2013-4-6,59.9,46.0,32.9,32.6,19.2,-1.1,75,42,9,30.17,29.72,8,2,16,0.00
2013-4-7,62.1,48.2,35.1,29.3,16.5,-0.8,66,34,9,30.06,29.52,11,3,21,0.00
2013-4-8,59.5,45.4,32.5,39.2,18.7,-3.8,92,43,11,29.70,29.14,14,5,24,0.16
2013-4-9,34.2,26.1,15.8,29.6,21.5,13.1,90,82,71,30.37,29.57,2,0,6,0.00
2013-4-10,39.9,24.3,11.5,18.9,11.7,6.8,89,62,25,30.49,30.00,7,1,11,0.04
2013-4-11,50.9,36.4,26.2,31.6,24.4,14.8,77,62,40,30.22,29.75,4,1,8,0.00
2013-4-12,57.7,41.9,32.5,31.5,20.2,-4.1,79,48,9,30.04,29.72,7,2,11,0.00
2013-4-13,63.0,50.2,36.7,37.8,13.8,-1.0,89,28,9,29.99,29.21,11,5,26,0.12
2013-4-14,51.1,38.7,27.9,37.2,18.6,-2.0,95,52,11,29.97,29.55,10,2,17,0.32
2013-4-15,41.0,35.1,32.4,34.0,26.8,14.2,92,75,36,29.81,29.56,7,2,14,0.20
2013-4-16,41.4,30.7,25.2,34.7,28.8,23.9,96,92,77,30.05,29.65,7,2,11,0.21
2013-4-17,34.0,23.9,10.8,23.8,18.7,6.5,95,81,60,30.55,29.96,6,2,11,0.11
2013-4-18,16.7,12.7,10.0,12.2,8.7,6.1,86,83,81,30.57,30.47,2,1,5,0.00
2013-4-19,48.0,41.0,30.2,26.8,20.5,11.9,66,45,28,30.42,30.03,10,2,23,0.00
2013-4-20,51.1,40.7,32.4,35.7,29.5,24.7,78,65,44,30.15,29.88,8,3,15,0.00
2013-4-23,31.5,29.3,27.9,4.6,3.1,2.0,36,32,28,30.33,30.26,3,2,5,0.00
2013-4-24,50.0,37.2,27.5,9.8,3.6,-4.7,40,25,10,30.31,30.08,8,2,11,0.00
2013-4-25,52.2,38.6,30.9,11.0,5.1,-3.0,42,27,10,30.30,29.84,5,2,8,0.00
2013-4-26,52.7,43.5,34.5,8.5,2.9,-3.6,29,19,10,30.26,30.02,3,2,6,0.00
2013-4-27,50.5,41.9,34.3,12.1,2.9,-3.7,31,20,13,30.42,30.20,3,2,7,0.00
2013-4-29,67.1,58.7,47.3,20.8,10.7,3.0,32,16,8,29.93,29.56,8,3,13,0.00
2013-4-30,66.9,58.4,39.9,37.7,12.4,0.3,87,20,8,29.98,29.39,14,4,21,0.02
2013-5-1,51.6,39.2,29.8,36.3,15.4,-32.6,96,52,2,30.63,29.99,13,3,17,5.26
2013-5-2,52.5,37.5,21.6,15.1,2.5,-24.2,60,30,3,30.88,30.34,8,3,14,0.00
2013-5-3,63.3,45.2,26.4,12.3,-7.3,-99.9,44,20,1,30.59,29.78,7,2,11,0.00
2013-5-4,60.3,46.7,34.5,17.8,0.2,-12.6,29,15,8,30.09,29.71,6,2,10,0.00
2013-5-5,68.4,53.9,48.4,57.0,11.9,-4.3,67,22,9,29.87,29.63,16,7,17,0.00
2013-5-6,61.2,47.5,38.8,42.8,33.9,7.3,96,64,14,30.12,29.74,13,3,24,0.22
2013-5-7,55.9,43.8,34.9,44.6,38.7,33.1,96,83,54,30.16,29.83,7,2,12,0.09
2013-5-8,45.9,40.5,35.6,42.8,39.1,34.8,98,94,87,30.18,29.98,4,1,7,0.35
2013-5-9,60.6,47.6,38.7,44.6,38.7,30.7,99,75,36,30.19,29.85,8,2,12,0.09
2013-5-10,56.3,42.6,36.9,39.6,34.2,32.1,84,73,45,30.29,30.05,3,2,4,0.00
2013-5-13,78.4,69.4,52.7,36.5,24.7,13.5,49,20,9,30.18,29.77,7,2,10,0.00
2013-5-14,78.3,66.5,50.2,36.3,27.6,15.0,50,25,10,30.06,29.59,6,2,10,6.01
2013-5-15,78.1,63.4,50.7,39.9,32.9,14.7,57,35,9,29.93,29.49,8,2,13,0.00
2013-5-16,77.0,59.6,32.2,44.0,26.5,5.8,67,35,10,30.13,29.51,16,3,17,6.01
2013-5-17,63.7,60.6,53.2,24.2,7.8,2.4,32,13,10,29.86,29.61,7,3,13,6.01
2013-5-18,61.9,51.3,39.2,39.6,31.0,23.8,82,48,28,30.07,29.67,14,3,27,0.04
2013-5-19,62.2,49.8,39.2,35.4,26.8,13.7,68,44,15,30.04,29.67,9,3,17,0.00
2013-5-20,59.4,47.0,34.9,42.9,33.1,27.5,81,60,32,30.15,29.84,10,2,15,0.00
2013-5-21,70.0,54.0,37.0,42.4,27.2,9.3,84,45,10,30.20,29.60,98,8,98,6.05
2013-5-22,68.4,56.6,46.4,19.8,13.7,1.8,34,20,9,29.87,29.52,7,3,11,0.00
2013-5-23,64.6,58.0,52.0,14.0,6.9,0.1,18,13,9,29.73,29.58,6,3,13,0.00
2013-5-24,62.6,55.2,50.0,10.1,2.7,-5.0,17,12,6,29.95,29.81,4,2,8,0.00
2013-5-27,56.1,54.5,52.5,4.9,1.7,-1.8,14,11,9,29.77,29.71,5,2,8,0.00
2013-5-28,69.4,57.0,41.4,40.8,15.2,-2.5,92,27,9,29.87,29.37,11,4,21,0.33
2013-5-29,63.0,51.2,39.4,39.7,29.5,10.5,93,51,13,29.86,29.50,14,4,26,0.00
2013-5-30,66.2,55.3,44.6,25.7,17.5,1.0,45,25,8,29.92,29.59,10,4,18,0.00
2013-5-31,49.6,47.9,45.3,23.1,20.0,17.9,37,33,28,29.98,29.91,3,1,4,0.00
2013-6-3,69.3,65.1,60.4,16.3,10.4,7.5,14,12,10,29.83,29.63,4,2,6,0.00
2013-6-4,74.3,61.8,50.9,28.8,16.2,6.3,33,18,7,29.96,29.65,8,2,15,0.00
2013-6-5,73.8,61.8,55.2,25.7,17.8,8.8,27,19,8,29.96,29.73,9,3,14,0.00
2013-6-6,72.1,57.4,47.5,27.3,17.2,6.1,38,22,8,30.06,29.77,5,2,7,0.00
2013-6-7,76.1,62.9,52.3,29.2,20.3,10.5,35,21,8,29.98,29.62,5,2,8,0.00
2013-6-8,84.6,71.1,61.7,32.4,10.1,-99.9,29,16,1,29.77,29.46,9,3,17,0.00
2013-6-9,75.4,64.0,54.3,29.3,20.8,10.0,35,21,8,30.01,29.74,4,2,8,0.00
2013-6-10,63.1,63.0,62.4,7.4,4.3,3.4,11,9,9,29.80,29.79,3,2,5,0.00
2013-6-12,67.8,61.6,56.8,14.2,7.5,3.8,15,12,9,29.99,29.85,4,2,7,0.00
2013-6-13,75.9,72.3,67.6,19.7,13.9,9.3,13,11,10,29.82,29.72,5,3,11,0.00
2013-6-15,70.9,61.2,51.3,27.7,12.3,-2.9,22,15,9,30.00,29.74,10,3,20,0.00
2013-6-16,80.8,69.0,58.5,44.8,28.6,8.1,60,24,9,29.98,29.70,8,3,16,0.00
2013-6-17,76.5,66.8,53.6,30.9,24.2,9.6,34,21,11,30.03,29.74,5,3,9,0.00
2013-6-18,77.9,65.9,57.6,21.8,6.6,-99.9,24,14,1,29.89,29.61,7,2,13,0.00
2013-6-23,62.2,56.5,50.2,10.9,6.3,2.1,20,13,9,29.96,29.79,4,2,9,0.06
2013-6-24,62.2,61.3,61.0,8.5,8.0,7.1,12,12,11,29.75,29.73,2,2,4,0.00
2013-6-25,72.7,64.5,58.8,29.7,18.0,2.2,31,18,9,29.92,29.72,5,2,10,0.00
2013-6-26,78.4,64.9,59.2,26.4,22.4,17.1,26,20,10,29.98,29.74,4,2,8,0.00
2013-6-27,72.3,71.1,70.2,14.0,13.3,12.0,11,11,10,29.97,29.94,3,2,4,0.00
2013-6-28,79.5,71.1,63.0,25.4,18.6,12.8,22,14,10,30.07,29.81,3,2,6,0.00
2013-6-29,81.7,73.8,65.7,31.0,23.7,17.2,26,16,9,29.98,29.76,5,2,13,0.00
2013-6-30,75.6,71.1,69.3,29.1,24.3,15.2,22,18,10,29.86,29.73,2,2,4,0.00
2013-7-1,73.0,66.4,59.7,38.7,34.8,28.8,43,31,22,30.06,29.85,4,2,8,0.00
2013-7-2,82.2,73.0,61.2,33.1,23.6,13.1,31,17,8,30.02,29.75,4,2,7,0.00
2013-7-3,80.2,69.6,61.0,37.8,26.4,13.1,32,21,8,29.93,29.59,7,2,12,0.00
2013-7-4,85.1,73.8,60.1,49.3,31.9,19.4,52,24,9,29.89,29.46,8,2,15,0.00
2013-7-5,88.7,75.6,63.3,42.2,34.3,20.8,43,25,9,29.75,29.41,8,3,14,0.00
2013-7-6,88.2,74.1,63.3,42.4,36.1,8.5,44,27,5,29.83,29.44,12,3,20,0.00
2013-7-7,88.5,72.2,57.7,56.6,40.4,26.3,78,37,11,30.00,29.49,10,3,19,0.07
2013-7-8,90.5,72.8,56.1,50.3,20.8,-99.9,73,36,1,30.05,29.60,8,3,16,0.00
2013-7-9,85.1,73.9,62.8,34.3,25.8,11.9,32,18,9,30.02,29.75,5,2,10,0.00
2013-7-10,83.7,71.5,64.9,22.2,14.8,9.1,17,11,9,29.94,29.73,6,2,11,0.00
2013-7-11,89.6,74.4,59.9,58.5,38.7,21.7,94,36,9,29.97,29.48,10,3,20,0.22
2013-7-18,65.3,63.2,60.8,55.4,52.7,50.0,82,69,58,30.03,29.98,10,6,19,0.69
2013-7-19,87.4,67.3,54.9,56.4,48.9,28.2,86,58,12,30.09,29.53,8,2,15,0.00
2013-7-20,86.7,74.4,63.0,50.4,44.1,21.1,57,37,9,29.89,29.49,6,3,12,0.00
2013-7-21,87.4,84.1,73.6,41.9,26.9,17.9,32,14,10,29.68,29.54,4,3,18,7.42
2013-7-22,87.6,75.1,64.4,41.1,33.9,21.8,39,25,9,29.86,29.59,6,2,12,7.42
2013-7-23,80.1,71.2,63.7,34.4,21.6,10.9,28,16,9,29.88,29.71,3,2,5,0.00
2013-7-25,87.8,74.9,58.5,47.3,37.1,18.3,60,30,8,30.02,29.61,8,3,14,0.00
2013-7-26,86.4,86.2,86.0,27.5,26.5,25.6,12,12,11,29.76,29.75,7,6,9,0.00
2013-7-28,63.5,62.7,61.5,55.1,53.4,50.7,78,72,63,29.83,29.78,3,1,4,0.00
2013-7-30,71.4,67.4,64.4,48.0,40.5,34.2,55,38,31,30.07,30.00,4,2,6,0.00
2013-7-31,87.8,73.1,61.0,46.1,36.0,18.9,53,29,8,30.14,29.72,6,3,11,0.00
2013-8-1,72.9,65.8,57.7,58.4,44.6,32.9,92,53,23,30.16,29.81,11,3,19,0.26
2013-8-2,81.0,70.8,52.5,58.2,54.8,47.1,97,59,38,30.07,29.64,6,2,8,0.19
2013-8-3,72.0,64.8,59.0,55.8,50.5,46.8,79,61,49,30.03,29.85,4,2,8,0.00
2013-8-10,75.0,66.0,57.2,48.4,40.4,31.8,58,41,22,30.11,29.88,11,5,21,0.18
2013-8-11,68.9,57.4,48.4,46.7,42.5,38.5,76,59,41,30.26,29.98,5,2,12,0.00
2013-8-27,68.0,62.8,56.5,61.9,56.2,52.2,99,79,71,30.13,29.87,3,2,6,0.87